Regional Weather Roundup
Issued by NWS

Home | Current Version | Previous Version | Text Only | Print | Product List | Glossary Off
Versions: 1 2 3 4 5 6 7 8 9 10 11 12 13 14 15 16 17 18 19 20 21 22 23 24 25 26 27 28 29 30 31 32 33 34 35 36 37 38 39 40 41 42 43 44 45 46 47 48 49 50

000
ASUS45 KABQ 252101
RWRNM
WEATHER ROUNDUP FOR NEW MEXICO
NATIONAL WEATHER SERVICE ALBUQUERQUE NM
200 PM MST SUN JAN 25 2015

NOTE: "FAIR" MEANS FEW OR NO CLOUDS BELOW 12,000 FEET AGL WITH NO
       SIGNIFICANT WEATHER OR OBSTRUCTIONS TO VISION.

      THIS PRODUCT IS RELEASED AS TWO VERSIONS.  ONE VERSION NEAR
      THE TOP OF THE HOUR CONTAINING PRELIMINARY DATA FROM ALBUQUERQUE
      AND OTHER STATIONS.  A FINAL VERSION WITH ADDITIONAL DATA IS
      ISSUED ABOUT 10 MINUTES AFTER THE HOUR.

NMZ501-503-504-510>518-252200-
NORTHWEST PLATEAU/NORTHCENTRAL MOUNTAINS

CITY           SKY/WX    TMP DP  RH WIND       PRES   REMARKS
FARMINGTON     SUNNY     46  17  31 CALM      30.29F
SANTA FE       SUNNY     52  19  27 W12       30.23F
TAOS           SUNNY     45  23  42 S6        30.25F

$$
NMZ402-403-502-505>509-252200-
WESTCENTRAL MOUNTAINS/SOUTHWEST MOUNTAINS

CITY           SKY/WX    TMP DP  RH WIND       PRES   REMARKS
GALLUP         SUNNY     51  20  29 W3        30.28F
SILVER CITY    SUNNY     55  19  24 S12       30.25F

$$
NMZ407-409-411-412-252200-
SOUTHERN DESERTS

CITY           SKY/WX    TMP DP  RH WIND       PRES   REMARKS
DEMING         MOSUNNY   57  25  29 E10       30.22F
HOLLOMAN AFB   SUNNY     54  27  35 W6        30.23F
ALAMOGORDO     SUNNY     55  23  28 W3        30.24S
T OR C         SUNNY     55  18  23 CALM      30.22F

$$
NMZ519>523-252200-
CENTRAL VALLEYS/CENTRAL HIGHLANDS

CITY           SKY/WX    TMP DP  RH WIND       PRES   REMARKS
ALBUQUERQUE    MOSUNNY   51  21  30 CALM      30.26F
DOUBLE EAGLE   SUNNY     52  21  30 VRB3      30.27F
CLINES CORNERS SUNNY     47  24  40 NW23G29   30.20F
BELEN          FAIR      53  20  27 NE6       30.26S
SOCORRO        NOT AVBL

$$
NMZ524>526-539-540-252200-
SOUTHCENTRAL MOUNTAINS

CITY           SKY/WX    TMP DP  RH WIND       PRES   REMARKS
RUIDOSO        NOT AVBL

$$
NMZ527>531-252200-
NORTHEAST HIGHLANDS/NORTHEAST PLAINS

CITY           SKY/WX    TMP DP  RH WIND       PRES   REMARKS
LAS VEGAS      SUNNY     44  24  45 E7        30.22S
RATON          SUNNY     45  23  42 S9        30.20F
CLAYTON        SUNNY     47  30  51 W14       30.19F

$$
NMZ532>537-252200-
EASTCENTRAL PLAINS

CITY           SKY/WX    TMP DP  RH WIND       PRES   REMARKS
TUCUMCARI      SUNNY     49  29  46 S7        30.21F
CANNON AFB     SUNNY     47  30  50 W5        30.23F
CLOVIS AIRPORT SUNNY     48  30  49 NW5       30.23F

$$
NMZ028-029-538-252200-
SOUTHEAST PLAINS

CITY           SKY/WX    TMP DP  RH WIND       PRES   REMARKS
ROSWELL        SUNNY     56  28  34 S8        30.23F
ARTESIA        SUNNY     55  27  33 E7        30.24F
CARLSBAD       SUNNY     59  24  26 SE8       30.23F
HOBBS          SUNNY     57  25  28 CALM      30.24F


$$


USA.gov is the U.S. government's official web portal to all federal, state and local government web resources and services.